CZ-6A DEB, 54944

Orbit data source: Space-Track

CZ-6A DEB, 54944 is space debris in SSO originally from a launch on Fri, 11 Nov 2022 UTC launched from the Taiyaun Space Center, China (TSC). Debris objects in space refer to the collection of defunct objects orbiting the Earth. Examples of debris include non-operational satellites, rocket bodies, and fragments generated from explosions, collisions, or faulty payload assembly.

Loading next visibility...
Identifier
54944, 2022-151SH
Orbit
SSO
Country
Flag of CNCN / PRC
Related business
Manufacturer
SAST
Mission
Spacecraft
Bus & Motor
Unknown
Mass
Unknown
Launch date (UTC)
2022-11-11 (4 years ago)
Launch vehicle
Unknown
Launch site
Taiyaun Space Center, China (TSC)
Object type
Payload
Rocket body
Debris
Shape & HBR
Unknown shape, 0.1 m
Radar Cross Section
Medium (>0.1 m² and <1 m²)

Expand to show TLE details & history
Last TLE update: 16 hours ago

TLE from 16 hours ago
0 CZ-6A DEB
1 54944U 22151SH  26236.46719160  .00000066  00000-0  14521-3 0  9998
2 54944  99.0359  66.1877 0510012  12.2581 349.0419 13.12966914180737
Epoch: 2026-08-24T11:12Z
TLE epoch observation values (Epoch: 2026-08-24T11:12:45.354Z)
Latitude
-0.00005°
Longitude
-74.74974°
Altitude
835.135 km
Speed
7.619 km/s
True Right ascension
04h 24m 45s
True Declination
0° 00' 00"
Sunlit
Object was in daylight at epoch
Visualization orbit readout
Latitude
Unknown
Longitude
Unknown
Altitude
Unknown
Speed
Unknown
Apparent Right ascension
Unknown
Apparent Declination
Unknown
Sunlit
N/A
Visualization observer readout
Local Sidereal Time
18:25:41
Azimuth
Unknown
Elevation
Unknown
Doppler factor
Unknown
Orbital elements
Apogee altitude
1,595.965 km
Perigee altitude
822.058 km
Semi-major axis
7,587.149 km
Eccentricity
0.051
Inclination
99.0359°
RAAN
66.1877°
Arg. of periapsis
12.2581°
True anomaly
347.85707°
Mean anomaly
349.0419°
Eccentric anomaly
348.45718°
Mean motion
3.28417 °/min
Orbital period
109.62 mins
BSTAR
0.00014521
Loading maneuver chart data...
Computing Atmospheric mass density...
Loading historical data...
Loading historical data...
Loading historical data...
Loading historical data...
Loading historical data...
Loading historical data...
Loading historical data...

Documentation

Showing up to 5 results
|